JAL2419 RJOO-RJFK

Flight info

Callsign JAL2419
Flight time N/A
Altitude 32000
Route TIGER MAIKO AWAJI Y232 KRE Y756 VIRUD Y757 SPICA
Aircraft E190/M-SDFLOVE2GIRW/S

Departure

Time 2026-04-28 12:19
Airport Osaka Itami International Airport (RJOO)

Arrival

Time N/A
Airport Kagoshima Airport (RJFK)
Time Latitude Longitude Altitude Speed Heading
2026-04-28 12:13 34.79212 135.43649 46 ft 0 kts 177°
2026-04-28 12:13 34.79203 135.43648 22 ft 4 kts 186°
2026-04-28 12:13 34.79163 135.43615 47 ft 9 kts 218°
2026-04-28 12:14 34.79103 135.43588 49 ft 10 kts 178°
2026-04-28 12:14 34.79038 135.43639 47 ft 14 kts 136°
2026-04-28 12:14 34.78967 135.43725 46 ft 15 kts 134°
2026-04-28 12:14 34.78890 135.43821 49 ft 17 kts 135°
2026-04-28 12:15 34.78803 135.43926 48 ft 19 kts 135°
2026-04-28 12:15 34.78704 135.44045 46 ft 21 kts 135°
2026-04-28 12:15 34.78600 135.44172 49 ft 22 kts 135°
2026-04-28 12:15 34.78507 135.44284 47 ft 16 kts 135°
2026-04-28 12:16 34.78404 135.44334 49 ft 17 kts 179°
2026-04-28 12:16 34.78285 135.44334 47 ft 18 kts 180°
2026-04-28 12:16 34.78164 135.44353 49 ft 17 kts 144°
2026-04-28 12:16 34.78106 135.44418 49 ft 17 kts 135°
2026-04-28 12:17 34.78020 135.44523 49 ft 18 kts 135°
2026-04-28 12:17 34.77892 135.44676 49 ft 20 kts 135°
2026-04-28 12:17 34.77790 135.44800 46 ft 21 kts 135°
2026-04-28 12:17 34.77719 135.44885 49 ft 22 kts 137°
2026-04-28 12:18 34.77585 135.44970 46 ft 21 kts 155°
2026-04-28 12:18 34.77469 135.45012 50 ft 14 kts 196°
2026-04-28 12:18 34.77440 135.44927 51 ft 12 kts 294°
2026-04-28 12:18 34.77546 135.44791 49 ft 50 kts 314°
2026-04-28 12:19 34.77972 135.44276 48 ft 120 kts 315°
2026-04-28 12:19 34.78710 135.43388 138 ft 171 kts 314°
2026-04-28 12:19 34.79585 135.42363 912 ft 183 kts 315°
2026-04-28 12:19 34.80427 135.41001 1190 ft 224 kts 289°